GFSFLT2_850_spd_201.txt.gz
Wind_Speed
28 29 28 26 24 23 22 20 19 17 16 14 13 13 13 12 11 11 10 10 9 9 8 8 8 10 9 9 8 7 10 9
28 30 30 29 27 25 23 22 21 18 17 14 13 14 13 12 12 11 11 10 10 9 9 8 9 10 10 9 8 10 11 11
28 31 31 30 29 27 26 25 21 19 18 17 16 15 14 13 13 12 11 11 10 10 10 10 11 12 11 9 9 10 11 10
26 30 31 31 31 30 29 27 24 23 22 21 19 17 15 15 14 13 13 12 12 11 10 10 12 11 11 11 10 9 9 8
28 30 31 33 33 33 31 30 27 26 24 23 21 20 19 18 17 15 14 14 13 11 10 10 12 9 8 11 11 11 9 9
28 31 32 33 34 34 32 31 29 29 26 25 25 23 22 20 18 17 16 14 13 13 12 12 12 11 9 9 10 10 11 10
29 31 33 36 35 36 34 32 30 29 28 28 27 25 22 21 20 20 18 16 15 14 14 14 13 13 12 11 11 10 9 7
29 29 31 34 37 37 36 34 33 32 31 30 28 26 23 22 22 20 20 18 17 15 14 15 15 15 14 12 12 11 9 5
29 30 31 32 35 35 36 36 35 35 33 32 30 28 26 24 24 21 21 20 20 19 18 17 18 17 15 14 13 11 8 5
30 31 32 33 32 34 35 37 36 36 34 33 31 30 28 26 26 23 21 21 20 20 20 20 20 19 18 16 14 11 9 7
35 35 34 34 35 35 34 35 36 37 36 36 35 33 32 30 28 25 24 23 21 20 20 21 22 20 18 15 12 10 9 8
40 39 38 38 38 37 36 33 32 36 39 39 37 35 32 31 28 25 26 24 22 21 21 22 21 21 20 16 12 9 7 6
46 46 43 43 43 42 42 40 38 37 39 38 37 36 34 33 31 29 27 24 24 23 25 24 23 23 23 19 15 11 8 7
36 42 45 47 46 45 45 43 42 39 38 38 37 38 36 36 35 34 31 30 29 27 28 28 28 28 26 21 12 13 13 11
27 40 45 49 52 50 48 46 46 44 42 40 41 39 37 37 37 37 34 33 33 32 34 34 35 35 30 18 11 9 19 14
19 20 38 46 48 52 52 54 55 54 47 43 43 41 39 38 38 38 37 35 35 33 35 35 37 39 36 32 15 12 15 16
27 15 22 36 44 48 52 52 53 52 51 46 45 44 43 41 39 39 38 38 36 35 36 36 38 41 43 41 26 18 19 15
23 20 13 24 35 44 50 53 54 52 50 48 47 45 45 42 39 38 37 37 36 35 36 36 37 37 43 42 42 28 26 22
28 21 15 17 27 36 44 49 52 54 52 48 50 50 50 46 43 41 38 37 36 34 34 33 34 35 33 38 40 34 27 27
25 24 19 17 22 28 36 43 46 48 47 45 48 44 44 46 42 38 36 35 34 32 32 30 30 29 30 30 34 32 26 26

GFSFLT2_850_spd_207.txt.gz
Wind_Speed
27 27 26 24 23 22 20 19 17 16 16 15 13 12 12 11 11 11 10 10 9 11 10 9 8 7 7 7 8 10 10 10
26 27 26 26 25 24 22 21 20 18 17 16 14 14 13 12 12 12 11 10 10 12 11 10 10 8 8 8 9 11 13 11
27 28 28 27 26 25 24 23 21 20 19 17 17 15 15 14 13 12 12 11 11 12 11 10 10 9 9 9 9 11 12 13
26 28 29 28 27 27 26 25 25 23 22 20 19 17 15 15 14 14 13 12 12 12 10 10 10 10 9 10 11 11 12 12
23 25 28 29 30 29 29 29 27 25 24 22 20 19 18 17 16 15 14 13 13 12 11 11 10 10 10 11 11 11 12 12
23 23 24 28 30 31 31 31 30 28 26 24 22 21 19 17 16 16 15 14 13 13 12 11 11 10 9 11 11 12 11 10
25 24 25 27 30 32 33 33 32 31 28 26 25 23 21 19 18 17 16 14 14 14 13 13 12 12 10 11 11 11 10 8
24 24 26 27 29 31 33 34 34 33 31 30 28 26 24 22 21 19 18 17 16 15 14 13 13 13 12 12 11 10 9 7
24 25 26 28 29 31 32 33 34 34 34 31 31 28 26 25 24 22 21 20 19 18 18 16 15 15 14 13 12 11 10 8
26 27 26 26 28 30 31 31 32 35 37 33 32 31 28 28 27 25 23 22 22 21 20 20 18 17 17 17 16 14 11 10
25 26 28 27 26 27 30 31 31 33 36 36 33 33 32 31 31 28 27 26 26 25 24 23 22 21 20 19 18 16 14 13
13 17 20 23 27 28 30 33 33 34 33 34 35 34 35 33 33 31 30 30 30 30 28 25 23 24 24 23 21 18 16 16
6 11 14 17 24 29 31 34 35 36 36 35 34 36 37 36 36 34 34 34 33 30 29 29 29 29 27 25 23 21 19 18
14 12 11 13 18 23 27 31 32 34 36 38 38 37 37 37 39 39 39 37 36 34 34 34 33 33 31 24 13 17 20 19
21 19 18 17 12 16 24 27 30 31 34 34 35 39 40 38 40 42 41 41 40 39 39 41 40 39 38 23 13 12 20 23
20 21 21 20 18 10 14 21 27 30 31 31 31 32 37 42 41 44 43 43 44 44 43 43 43 42 41 36 22 17 13 14
19 19 19 18 16 12 14 20 25 29 29 32 30 27 29 34 42 43 44 45 46 44 44 46 47 45 47 44 34 21 19 15
19 19 18 16 15 15 16 17 22 25 28 33 35 33 32 32 33 42 46 47 46 45 44 45 48 48 46 47 47 40 28 20
20 20 19 19 18 17 19 21 22 24 26 30 33 35 35 35 33 37 46 47 47 47 47 49 51 49 48 45 46 44 33 29
20 22 23 24 25 25 25 25 25 26 26 28 32 33 33 35 34 35 41 49 50 49 47 47 49 48 43 37 39 41 37 33

GFSFLT2_850_spd_210.txt.gz
Wind_Speed
24 24 23 20 18 17 17 17 16 15 14 13 12 11 10 10 10 10 11 10 10 8 8 7 7 7 6 7 8 9 8 7
22 23 23 22 21 19 18 18 17 16 15 13 12 11 11 11 11 12 11 12 12 11 9 9 8 7 7 7 8 8 6 7
22 24 24 24 22 22 20 19 17 17 16 16 14 13 13 13 13 13 12 13 12 11 11 9 8 7 7 7 7 4 7 8
22 25 26 26 22 23 23 22 21 21 20 18 15 14 12 11 15 14 14 14 13 12 11 9 6 4 6 7 4 7 7 6
21 23 25 26 23 21 22 20 20 21 20 20 18 18 19 16 15 16 16 15 14 13 11 9 9 8 7 7 9 7 7 8
19 20 24 25 18 18 17 19 20 19 21 23 22 21 20 16 15 14 14 14 14 13 12 13 12 12 10 10 9 9 7 5
16 20 23 24 26 19 20 21 20 20 20 23 20 18 17 16 16 16 14 15 16 16 14 14 14 13 13 12 11 12 12 7
15 17 23 24 25 24 20 21 21 25 25 23 25 21 18 16 16 16 17 18 17 18 17 15 14 14 15 15 15 14 13 10
18 20 21 22 25 25 22 18 20 25 26 29 30 28 24 22 16 16 15 16 21 20 20 17 16 16 16 17 16 16 14 13
13 14 17 18 18 22 26 20 23 25 25 26 28 31 29 30 23 19 17 19 21 19 19 18 17 16 17 18 16 15 15 14
13 13 17 20 18 18 21 24 27 26 25 29 29 31 30 31 27 20 24 25 24 22 18 17 17 16 15 14 15 14 16 14
10 12 13 15 16 17 20 21 25 29 26 29 27 30 33 30 30 27 29 27 25 22 21 19 18 17 16 15 13 13 14 14
5 2 2 8 11 14 18 21 24 27 30 34 33 33 35 31 31 33 32 30 27 29 26 23 21 20 19 15 13 14 14 16
13 11 9 5 5 11 12 14 17 20 22 26 30 32 35 35 34 36 39 34 31 31 30 25 23 25 23 20 15 13 15 15
14 13 13 13 11 0 7 12 15 17 18 19 19 22 23 26 34 36 39 41 38 40 38 35 29 29 25 20 14 16 21 18
14 14 14 14 11 4 6 7 11 12 14 16 18 20 22 23 24 29 39 46 44 44 42 43 34 33 32 33 19 14 18 15
11 12 12 14 13 12 9 10 13 15 17 20 22 24 25 23 24 26 35 45 48 49 47 46 45 36 36 36 25 20 18 16
13 15 16 17 16 13 14 15 16 19 20 21 22 22 25 26 28 28 30 37 46 49 52 49 48 44 37 37 37 33 25 19
15 17 17 19 19 19 18 18 19 19 20 22 26 26 28 27 26 30 33 35 38 45 51 54 53 47 46 43 39 35 26 25
15 16 18 17 19 20 20 21 20 22 21 20 20 23 28 26 30 29 32 34 38 43 50 55 56 55 53 47 46 45 40 34

GFSFLT2_850_spd_216.txt.gz
Wind_Speed
18 21 20 18 16 15 15 14 14 13 12 11 11 10 9 9 8 8 8 7 6 5 5 5 6 5 5 4 4 8 4 4
20 22 21 20 19 18 16 15 14 13 13 13 12 12 11 10 10 10 9 8 8 7 6 7 7 7 7 6 5 7 8 9
17 22 22 22 21 19 18 17 16 15 15 15 14 13 12 12 12 12 10 10 10 10 9 8 8 8 7 7 8 9 8 16
12 16 20 22 21 21 21 20 19 18 18 17 16 14 12 13 12 14 12 12 12 12 11 10 8 7 6 7 9 5 10 11
16 15 14 18 16 17 22 22 21 20 19 19 18 14 14 12 15 14 14 16 15 14 13 11 8 5 7 5 11 9 13 16
18 18 18 14 19 17 11 18 16 18 17 16 15 15 17 19 16 13 13 14 11 14 12 13 10 13 10 9 8 15 18 19
19 20 22 19 22 16 12 10 15 10 13 15 15 17 21 17 17 12 10 10 10 13 11 10 10 17 20 18 19 17 15 14
21 21 20 20 24 20 18 15 17 16 17 19 20 18 22 18 17 17 16 16 13 11 14 15 18 16 17 18 16 17 15 18
19 20 19 18 17 20 16 21 21 21 21 21 23 22 20 24 21 22 22 19 19 18 19 19 19 14 16 16 17 17 21 23
16 24 26 24 24 21 23 18 22 25 22 23 23 25 23 26 23 22 23 22 23 26 23 23 23 19 18 18 19 18 17 18
21 19 21 19 18 18 22 22 20 22 25 24 23 21 20 23 25 25 26 26 26 24 25 24 22 20 21 21 21 21 21 21
18 21 17 11 11 12 12 13 21 25 23 23 25 24 21 22 21 21 24 27 28 28 29 26 25 24 24 23 24 22 21 24
7 9 13 14 14 13 14 16 16 19 24 21 19 23 21 23 27 23 23 26 29 30 31 28 28 26 24 23 25 25 25 27
12 11 7 3 5 5 7 5 5 8 13 15 19 23 24 25 26 27 28 27 28 32 33 33 33 30 31 27 21 24 29 31
14 14 16 14 13 6 7 7 4 3 7 6 5 7 13 19 23 26 28 29 31 32 39 38 39 36 37 29 17 19 28 34
13 12 12 17 18 14 10 5 4 4 3 2 5 8 13 15 16 19 21 23 27 26 30 44 41 38 38 44 36 19 19 15
14 9 9 10 9 8 7 5 5 6 9 13 16 14 17 20 20 19 22 24 24 25 27 34 46 46 39 38 48 40 23 22
10 9 3 2 2 2 2 5 8 10 11 12 12 10 13 17 18 20 20 22 25 26 27 30 41 47 48 46 42 45 48 35
7 5 4 1 3 6 8 9 10 10 10 10 12 14 11 10 15 19 21 22 23 24 26 29 31 39 49 52 53 45 49 46
6 4 1 2 4 6 8 10 12 12 12 14 18 22 21 21 23 21 21 23 22 25 28 28 29 33 36 45 57 60 49 47

GFSFLT2_850_spd_219.txt.gz
Wind_Speed
23 25 23 20 19 18 16 15 15 14 13 12 11 11 10 9 7 6 5 5 4 4 4 4 4 4 4 4 6 8 7 4
20 25 24 22 20 18 17 16 15 14 14 13 12 11 10 9 8 8 7 6 6 5 5 5 5 5 6 6 7 10 9 6
21 25 23 22 20 19 18 17 16 15 14 14 13 12 10 10 10 10 9 8 7 7 7 7 6 6 6 7 9 12 12 9
20 23 23 22 21 20 19 18 18 17 16 15 14 13 12 11 12 12 11 9 9 10 9 8 7 5 5 6 9 13 14 10
15 21 22 21 21 20 20 19 18 18 17 16 15 15 14 12 11 13 11 9 13 12 11 10 8 7 7 5 8 14 14 12
12 14 16 18 20 18 16 17 17 18 17 16 16 16 15 14 12 11 9 8 10 13 13 12 11 10 8 5 10 13 14 13
16 13 13 14 18 14 10 8 10 13 11 11 11 15 17 17 16 14 13 10 8 8 9 9 9 15 13 11 13 14 18 16
18 14 12 13 16 13 13 13 11 11 11 11 11 12 14 18 17 16 16 13 12 13 13 12 11 13 15 20 20 21 23 21
20 18 14 13 17 17 12 15 13 14 15 14 14 15 16 18 21 20 18 14 14 15 14 16 16 18 19 20 26 25 25 26
21 20 20 17 19 29 23 19 18 17 19 19 19 18 20 20 20 22 20 19 17 17 20 21 23 25 24 21 20 22 23 29
22 24 22 22 20 22 31 25 23 23 23 23 21 22 20 18 20 21 22 23 24 25 26 28 28 27 26 23 24 23 25 29
21 22 26 26 23 23 26 30 26 25 25 24 23 20 20 20 22 20 21 25 28 29 30 29 31 28 24 24 26 28 26 30
21 25 23 19 16 15 18 19 21 26 26 25 25 25 25 25 24 23 21 21 25 30 31 31 31 29 24 25 28 31 32 31
11 14 12 13 10 13 15 15 15 16 19 22 23 23 22 22 24 24 25 26 24 25 28 33 35 35 29 29 27 31 37 33
17 16 16 14 11 11 10 13 10 9 7 7 7 8 11 18 21 25 26 28 28 29 30 31 35 38 34 32 16 22 33 38
21 18 14 17 18 16 12 11 13 10 7 6 2 5 7 9 10 13 17 20 24 25 25 28 29 34 39 40 42 29 19 16
15 16 18 21 20 17 15 13 12 9 6 5 6 9 11 11 11 15 17 17 20 22 24 27 26 30 32 43 42 47 37 30
17 15 14 15 15 14 12 10 8 7 8 9 10 9 7 6 11 15 17 19 20 20 23 25 25 29 31 36 45 46 48 47
17 12 10 8 7 6 4 2 3 4 4 6 8 10 11 11 12 14 15 18 19 21 22 23 26 30 25 28 36 47 48 42
17 14 10 7 5 2 3 5 7 8 8 10 12 14 16 17 19 19 19 19 19 22 23 23 24 25 28 31 32 31 39 51

GFSFLT2_850_spd_222.txt.gz
Wind_Speed
27 25 24 22 21 19 19 18 17 16 15 14 13 12 10 9 8 7 6 6 5 4 4 5 5 6 6 6 7 8 8 5
27 27 24 22 21 19 19 18 18 17 16 15 14 12 11 10 9 8 7 6 6 5 5 6 6 7 7 8 9 10 9 8
24 27 25 23 22 22 21 20 18 18 17 16 16 14 13 11 10 9 8 7 8 7 6 7 7 6 7 10 11 12 11 11
21 27 26 26 25 24 23 21 21 19 18 18 17 15 13 11 11 9 9 9 9 8 8 8 7 7 7 9 12 13 14 13
21 27 28 27 27 25 24 22 21 20 19 18 16 16 15 14 13 12 10 10 7 9 10 9 8 8 7 10 11 13 14 14
22 26 28 28 26 25 22 21 20 19 18 17 17 17 17 15 13 9 7 5 5 6 7 10 11 11 12 10 9 12 13 14
23 26 28 28 27 24 22 20 19 18 17 16 17 17 17 16 14 12 9 8 7 5 5 6 9 12 13 11 11 14 15 16
27 25 24 24 24 24 20 15 11 14 16 14 13 13 13 13 14 14 13 12 11 10 10 10 9 9 13 14 14 16 17 18
28 25 23 21 19 22 21 18 15 14 14 13 13 12 12 13 14 15 15 16 15 15 16 15 14 13 13 15 15 21 23 23
26 21 23 20 18 21 21 21 19 18 19 17 16 14 12 14 15 16 17 19 19 19 17 18 19 18 19 19 20 20 27 31
28 24 26 23 21 22 22 19 21 22 19 20 19 16 15 17 18 17 18 21 24 24 21 19 21 22 23 26 25 24 23 26
29 25 26 27 25 27 28 26 22 22 21 22 21 20 19 19 19 18 17 21 24 26 26 22 25 27 28 29 29 27 26 28
30 28 29 31 32 28 26 27 29 27 25 23 23 22 22 22 22 22 22 22 21 26 28 28 30 31 29 32 32 29 30 33
29 28 30 32 28 28 24 24 23 27 27 25 24 22 22 23 24 24 24 24 24 24 25 29 31 30 32 32 32 33 34 36
27 26 27 27 23 18 19 18 20 22 22 24 22 21 23 24 25 25 24 25 27 26 27 28 28 30 29 27 10 16 21 31
26 25 25 21 19 17 15 15 15 14 14 12 12 11 10 9 10 14 18 21 23 22 23 23 24 26 27 28 33 35 17 15
23 21 17 23 20 19 18 19 16 12 11 10 9 9 10 10 10 11 14 16 17 20 21 23 25 24 28 29 28 31 40 42
24 22 24 24 21 19 16 16 14 11 9 10 11 12 13 13 14 14 16 17 17 18 19 20 22 24 25 22 23 30 31 32
25 24 27 23 20 18 16 14 12 10 10 10 11 11 11 13 15 16 18 18 19 20 21 21 22 25 26 28 30 28 25 30
25 26 25 22 20 17 14 12 9 6 7 8 10 12 14 16 19 20 22 23 22 23 25 26 27 25 25 27 30 31 29 30

GFSFLT2_850_spd_228.txt.gz
Wind_Speed
30 30 28 26 24 23 21 19 18 16 14 13 13 11 9 8 7 6 6 5 6 7 6 5 5 5 5 5 5 4 4 5
31 30 28 26 24 22 21 20 18 16 15 14 13 12 10 8 7 6 5 4 4 4 4 4 6 6 6 7 7 6 4 4
32 30 29 26 23 23 22 20 18 17 16 16 15 12 10 8 7 6 5 4 4 4 3 4 6 7 8 10 9 8 6 4
33 31 27 25 24 23 22 21 20 19 18 17 15 12 10 9 8 7 7 6 5 6 6 6 6 8 9 10 10 10 7 6
32 28 26 26 24 23 22 22 21 21 20 17 14 13 12 11 10 10 8 8 7 7 7 8 8 8 10 10 10 10 9 8
27 28 28 26 24 23 22 23 22 23 21 18 16 15 14 13 12 11 10 9 7 6 5 5 7 9 11 11 10 7 8 9
25 24 26 27 26 24 24 24 24 22 20 19 17 16 15 14 13 13 11 10 8 7 5 4 4 5 8 10 11 10 10 10
23 23 24 27 28 26 25 24 22 21 20 19 17 16 15 15 15 15 13 12 10 10 9 8 9 9 7 8 8 10 11 12
25 23 24 27 28 26 25 23 22 21 20 18 18 16 15 16 16 16 13 12 12 12 12 13 12 11 11 11 11 12 13 14
26 27 25 24 26 25 25 23 22 21 20 19 19 17 15 12 12 11 10 11 11 13 14 16 16 16 15 16 17 17 17 17
31 31 26 23 26 25 24 22 22 20 18 16 14 14 13 12 11 10 11 11 14 16 16 18 19 20 21 19 20 21 21 22
33 30 28 27 25 24 24 24 23 21 20 18 15 15 15 16 17 15 16 17 16 16 16 18 21 22 24 24 23 24 24 26
39 37 34 33 31 28 27 27 28 24 23 20 20 18 20 20 19 19 21 21 20 20 20 21 22 22 23 25 27 25 27 31
42 40 40 39 35 32 30 27 25 23 21 22 23 23 24 23 23 22 24 23 23 21 22 22 22 21 19 22 22 23 25 24
45 43 42 42 39 36 33 27 23 23 25 25 24 22 23 24 24 23 23 22 21 21 23 22 19 21 18 16 8 9 16 22
41 41 37 39 38 37 36 31 31 26 26 26 25 24 24 25 24 24 22 21 23 24 21 21 23 20 18 21 18 18 14 15
43 43 38 39 41 38 35 29 28 26 27 23 22 20 21 20 20 18 18 16 15 15 14 14 16 15 16 19 22 20 20 15
43 41 39 39 40 37 35 32 29 28 25 23 20 18 16 16 15 14 13 13 12 13 14 15 14 15 15 18 20 21 19 21
41 40 41 39 37 35 35 33 29 25 24 21 19 17 16 15 14 12 11 12 13 13 14 15 16 17 19 20 20 21 21 22
44 41 38 36 35 33 32 29 25 23 22 22 20 18 16 13 12 11 12 13 14 14 15 15 16 17 18 19 20 20 21 22

GFSFLT2_850_spd_234.txt.gz
Wind_Speed
34 32 29 27 25 23 21 20 19 17 16 14 13 12 11 10 9 8 7 6 6 4 4 2 1 1 1 1 1 2 2 3
35 33 32 30 26 24 23 21 20 18 17 16 14 12 11 9 8 8 7 6 6 5 3 2 2 2 2 2 2 2 2 3
30 32 33 31 29 27 24 22 20 19 19 17 15 14 13 11 10 9 9 8 7 5 3 2 2 3 3 3 3 2 3 3
29 29 31 32 28 30 27 25 23 22 21 20 17 15 13 12 12 12 11 10 8 6 4 3 3 2 3 3 2 4 2 4
34 29 29 32 28 30 28 24 24 23 22 22 17 16 16 14 13 14 13 11 7 6 5 2 5 4 4 4 4 3 3 3
33 32 33 34 28 32 30 23 25 22 22 22 19 17 16 14 12 11 11 10 10 7 6 6 3 3 4 4 4 3 3 3
33 34 35 35 34 31 30 25 30 29 26 25 23 18 16 15 13 12 11 11 9 8 8 5 3 2 2 3 2 4 4 3
33 38 37 37 34 33 33 33 30 30 28 26 24 20 18 16 14 13 12 10 10 10 9 7 6 5 4 4 3 3 5 5
30 35 38 38 37 35 35 33 32 30 28 26 24 23 20 18 15 14 12 11 12 12 10 9 8 7 7 7 6 7 7 7
29 32 37 38 38 35 34 33 31 29 27 26 26 23 21 20 17 15 13 13 11 11 11 10 7 7 8 9 10 9 11 13
32 33 35 38 37 36 32 30 29 28 25 24 25 24 22 21 18 15 15 14 13 12 10 10 8 8 8 9 10 12 13 13
29 34 35 36 33 32 28 28 29 25 23 23 25 24 23 22 17 16 15 14 13 13 12 10 10 9 9 11 12 13 13 13
32 35 37 38 37 32 30 32 30 28 27 28 25 24 23 23 19 19 18 15 14 14 13 13 13 10 11 12 13 12 13 13
32 35 35 39 38 35 27 25 25 25 27 28 27 25 22 22 21 19 19 16 18 19 18 16 17 19 14 15 12 16 16 8
36 37 39 41 37 34 26 21 22 24 27 30 29 26 24 23 24 23 21 21 21 22 20 19 20 19 17 11 4 10 7 11
36 36 37 39 38 34 35 33 32 31 31 30 30 29 27 26 26 25 23 23 23 23 21 19 17 15 13 12 14 10 8 10
39 37 37 37 41 41 37 31 25 22 30 33 32 30 28 27 25 22 20 18 15 19 15 11 12 7 7 8 6 9 10 10
39 37 38 38 38 41 37 37 26 32 35 36 35 32 28 26 22 18 18 17 18 16 14 10 8 6 4 4 5 6 7 11
39 38 38 38 37 38 37 36 32 31 34 36 34 33 28 23 21 20 19 18 16 14 12 10 9 9 9 10 10 7 11 10
33 37 37 36 41 37 37 35 40 29 31 34 30 29 24 23 22 21 19 17 15 13 11 11 11 11 10 10 11 12 12 12

GFSFLT2_850_spd_237.txt.gz
Wind_Speed
33 30 28 25 24 24 23 22 20 18 17 15 14 11 10 9 9 9 8 7 7 6 5 4 3 3 3 3 3 2 5 1
33 33 31 28 27 25 23 22 20 18 17 15 14 12 10 10 9 9 8 7 7 6 5 5 4 2 2 1 2 4 5 2
28 30 33 32 30 28 25 23 21 19 18 17 15 14 12 11 11 10 9 8 8 6 5 4 3 2 2 1 2 5 3 1
28 28 29 31 25 30 28 26 24 22 21 19 17 12 13 11 12 12 11 10 8 7 5 4 1 2 7 4 5 5 2 4
29 29 28 27 25 27 28 26 24 24 21 20 16 13 12 13 15 15 13 11 9 7 5 2 2 7 6 5 5 2 1 2
29 29 29 28 25 23 24 23 23 21 20 21 19 17 16 15 12 12 12 11 9 7 7 7 8 6 6 6 5 4 3 3
30 30 31 30 29 24 24 25 23 22 21 23 20 19 18 16 14 13 12 12 10 11 12 10 7 7 5 4 4 5 6 5
30 31 30 30 29 27 27 25 22 29 22 22 25 20 20 17 17 16 15 14 12 11 11 9 10 8 7 7 5 4 5 6
30 32 32 31 30 27 25 24 25 31 30 33 28 23 20 18 17 16 15 14 14 13 13 12 12 12 9 7 7 6 6 7
29 30 33 33 31 28 25 25 24 23 27 28 28 26 20 20 18 17 16 16 13 13 13 14 12 10 9 9 7 8 8 9
28 30 33 33 30 28 26 23 24 22 23 22 27 27 23 21 19 18 18 16 15 15 16 14 10 7 8 10 9 9 10 10
29 29 29 33 31 30 24 24 23 23 22 22 23 27 25 24 19 19 17 16 17 16 14 13 11 10 9 12 10 10 10 11
32 31 31 31 33 34 31 29 25 24 22 23 25 26 27 27 21 20 18 18 18 15 14 14 16 15 10 10 12 11 12 12
34 34 34 35 32 32 30 28 25 24 24 25 27 28 27 27 25 21 21 19 19 19 19 14 12 11 9 8 10 8 13 7
39 39 36 38 35 30 27 24 24 25 27 26 29 28 30 26 26 23 22 22 23 20 17 15 14 15 13 8 5 8 5 7
43 41 38 39 39 34 35 35 33 33 31 29 28 30 29 28 25 25 24 22 19 17 17 18 18 19 15 14 15 8 6 8
44 43 41 40 41 40 41 37 33 28 27 28 30 30 28 25 27 27 26 24 23 21 20 19 17 16 9 8 6 6 8 9
43 45 43 44 44 45 41 43 35 32 31 31 33 32 35 32 31 29 26 24 19 18 15 12 6 8 8 9 8 7 7 9
46 46 45 46 46 47 43 42 37 36 34 41 40 38 37 32 30 29 25 21 20 20 16 16 13 10 11 7 6 5 8 8
45 42 46 46 48 49 48 43 40 34 41 40 37 40 37 34 30 27 26 24 21 18 16 15 14 13 11 9 7 8 8 8